Regional Weather Roundup
Issued by NWS Cleveland, OH

Home | Current Version | Previous Version | Graphics & Text | Print | Product List | Glossary On
Versions: 1 2 3 4 5 6 7 8 9 10 11 12 13 14 15 16 17 18 19 20 21 22 23 24 25 26 27 28 29 30 31 32 33 34 35 36 37 38 39 40 41 42 43 44 45 46 47 48 49 50
000
ASUS41 KCLE 280510
RWRCLE
OHIO REGIONAL WEATHER ROUNDUP
NATIONAL WEATHER SERVICE CLEVELAND, OH
100 AM EDT MON JUL 28 2014

NOTE: "FAIR" INDICATES FEW OR NO CLOUDS BELOW 12,000 FEET WITH NO
SIGNIFICANT WEATHER AND/OR OBSTRUCTIONS TO VISIBILITY.

OHZ001>008-015>018-024>027-034-035-043-044-280600-
   NORTHWEST OHIO

CITY           SKY/WX    TMP DP  RH WIND       PRES   REMARKS
DEFIANCE       CLOUDY    64  59  83 VRB6      29.75S
FINDLAY        PTCLDY    64  61  90 W9        29.72F
TOLEDO EXPRESS CLOUDY    63  57  81 NW6       29.74R
TOLEDO EXEC    CLOUDY    65  56  72 W8        29.73R
LIMA           CLEAR     65  62  90 W9        29.75F
$$

OHZ009>014-019>023-028>033-038-089-280600-
   NORTHEAST OHIO

CITY           SKY/WX    TMP DP  RH WIND       PRES   REMARKS
CLE-HOPKINS    MOCLDY    64  63  96 SW8       29.68R
CLE-LAKEFRONT  PTCLDY    65  62  90 SW5       29.65R
CUY CO. ARPT   NOT AVBL
LORAIN-ELYRIA  MOCLDY    66  62  87 W7        29.69R
ASHTABULA      CLEAR     59  58  96 W3        29.63F
AKRON-CANTON   CLOUDY    64  61  90 W6        29.67S
WOOSTER        CLOUDY    64  62  93 CALM      29.68F
MANSFIELD      PTCLDY    62  61  96 W7        29.71S
YOUNGSTOWN     MOCLDY    62  60  93 W6        29.64F
$$

OHZ042-051>053-060>062-070>072-077>081-280600-
  SOUTHWEST OHIO

CITY           SKY/WX    TMP DP  RH WIND       PRES   REMARKS
CINC-COVINGTON PTCLDY    67  60  78 W6        29.82S
CINC-LUNKEN    CLEAR     72  59  63 NW7       29.81R
HAMILTON       CLEAR     70  58  65 NW10      29.81R
DAYTON         PTCLDY    69  57  65 NW12      29.79S
WRIGHT-PAT AFB MOCLDY    70  59  69 NW13      29.77S
DAYTON GENERAL CLEAR     68  58  70 NW7       29.79R
WILMINGTON     CLEAR     68  59  73 W8        29.78S
$$

OHZ036-037-039>041-045>050-054>059-063>069-073>076-082>088-280600-
  CENTRAL AND SOUTHEAST OHIO

CITY           SKY/WX    TMP DP  RH WIND       PRES   REMARKS
COLUMBUS       PTCLDY    67  62  84 W5        29.73S
OSU AIRPORT    CLEAR     65  62  90 W6        29.73F
BOLTON FIELD   MOCLDY    67  64  90 W5        29.75F
RICKENBACK AFB MOCLDY    69  62  77 W8        29.73F
NEWARK         MOCLDY    66  63  90 W6        29.71F
MARION         CLEAR     63  60  90 W6        29.72F
LANCASTER      MOCLDY    68  63  84 W6        29.73S
ZANESVILLE     PTCLDY    66  62  87 W5        29.70S
NEW PHILLY     MOCLDY    64  62  93 CALM      29.68S
$$



USA.gov is the U.S. government's official web portal to all federal, state and local government web resources and services.